Location: Four Corners
(38.2757°N, 122.4608°W)
Time: 07:10:56
(UTC+00:00)

ATLAS 3B R/B - Pass Details

Date: 08 December 2019
Orbit: 1027 x 1168 km, 63.8° (Epoch: 16 January)

Event Time Altitude Azimuth Distance (km) Brightness Sun altitude
Rises 01:31:02 0° 325° (NW) 3,803 5.8 -8.2°
Reaches altitude 10° 01:33:38 10° 324° (NW) 2,859 5.1 -8.7°
Maximum altitude 01:40:21 74° 241° (WSW) 1,108 3.0 -9.9°
Drops below altitude 10° 01:47:16 10° 157° (SSE) 2,936 5.0 -11.2°
Sets 01:49:58 0° 156° (SSE) 3,911 5.6 -11.7°
